Regional Weather Roundup
Issued by NWS

Home | Current Version | Previous Version | Text Only | Print | Product List | Glossary Off
Versions: 1 2 3 4 5 6 7 8 9 10 11 12 13 14 15 16 17 18 19 20 21 22 23 24 25 26 27 28 29 30 31 32 33 34 35 36 37 38 39 40 41 42 43 44 45 46 47 48 49 50

509
ASUS45 KSLC 290810
RWRUT

UTAH REGIONAL WEATHER ROUNDUP
NATIONAL WEATHER SERVICE SALT LAKE CITY UT
200 AM MDT SUN MAY 29 2016

UTZ001>011-023>025-290900-

NORTHERN UTAH

CITY           SKY/WX    TMP DP  RH WIND       PRES   REMARKS
BRIGHAM CITY     N/A     53  43  71 CALM      30.08S
HILL AFB       PTCLDY    56  35  46 E14       30.09S
LOGAN          CLEAR     47  42  83 E3        30.10S
OGDEN          PTCLDY    56  37  49 S9        30.07S
PROVO AIRPORT  PTCLDY    57  43  58 N5        30.08F
SALT LAKE CITY PTCLDY    61  39  44 SE8       30.06S
VERNAL         CLEAR     49  39  68 W7        30.13S
WENDOVER       MOCLDY    63  43  48 N8        30.05F
HEBER CITY     PTCLDY    41  36  81 CALM      30.13S
WEST JORDAN    CLEAR     54  41  62 S5        30.09S

$$

UTZ012>022-026-027-290900-

SOUTHERN/CENTRAL UTAH

CITY           SKY/WX    TMP DP  RH WIND       PRES   REMARKS
BLANDING       CLEAR     55  31  40 N12       30.18S
BRYCE CANYON   MOCLDY    40  33  76 W8        30.22S WCI  34
CEDAR CITY     PTCLDY    52  35  52 S5        30.08S
DELTA          PTCLDY    52  39  62 N8        30.07S
HANKSVILLE     PTCLDY    55  36  47 N3        30.09S
MILFORD        MOCLDY    54  37  52 NE5       30.06S
MOAB/CYNLANDS  CLEAR     54  34  46 SW5       30.05S
PRICE          PTCLDY    49  36  61 N6        30.13F
ST GEORGE      MOSUNNY   73  34  23 N7        29.93F
KANAB          MOCLDY    64  32  29 N7        30.08R

$$

REGIONAL REPORTS     COLORADO/ARIZONA

CITY           SKY/WX    TMP DP  RH WIND       PRES   REMARKS
CRAIG, CO      CLEAR     40  34  79 CALM      30.20S
GRAND JUNCTION CLEAR     58  35  42 SE9       30.10R
RIFLE          CLOUDY    44  34  67 E6        30.17S
MONTROSE       CLOUDY    52  33  48 SE12      30.18R
CORTEZ         CLOUDY    43  31  62 N3        30.14S
PAGE, AZ       PTCLDY    67  31  26 CALM      29.99S
GRAND CANYON   PTCLDY    38  25  59 CALM      30.16S
KINGMAN        CLEAR     65  28  24 MISG      29.96S
FLAGSTAFF      CLEAR     41  19  41 CALM      30.18S

$$

REGIONAL REPORTS    NEVADA/IDAHO/WYOMING

CITY           SKY/WX    TMP DP  RH WIND       PRES   REMARKS
LAS VEGAS, NV  PTCLDY    77  26  15 SW5       29.82S
ELY            PTCLDY    46  39  76 CALM      30.16S
ELKO           PTCLDY    55  44  66 N5        30.08F
POCATELLO, ID  CLEAR     42  35  76 E6        30.10F
BURLEY         CLEAR     45  37  73 CALM      30.07S
EVANSTON, WY   CLOUDY    47  29  49 SE6       30.20S
ROCK SPRINGS   CLEAR     45  36  70 S8        30.18F
KEMMERER         N/A     37  32  81 NW5       30.21S WCI  34

$$




USA.gov is the U.S. government's official web portal to all federal, state and local government web resources and services.